EDW3CM LWSK-LSZH

Flight info

Callsign EDW3CM
Flight time N/A
Altitude 38000
Route GOSTI DCT MAVAR DCT RETRA DCT DEPET DCT ALIVO DCT BAKOR DCT SOTOV/N0412F300 P66 KPT L856 NEGRA
Aircraft A320/M-SDE2E3FGHIJ1RWXY/LB1

Departure

Time 2026-05-09 08:50
Airport Skopje International Airport (LWSK)

Arrival

Time N/A
Airport Zürich Airport (LSZH)
Time Latitude Longitude Altitude Speed Heading
2026-05-09 08:26 41.96033 21.62607 793 ft 0 kts 76°
2026-05-09 08:42 41.96030 21.62591 793 ft 4 kts 76°
2026-05-09 08:42 41.96024 21.62558 793 ft 4 kts 76°
2026-05-09 08:42 41.96018 21.62524 793 ft 4 kts 76°
2026-05-09 08:42 41.96013 21.62497 792 ft 4 kts 86°
2026-05-09 08:43 41.96017 21.62468 791 ft 4 kts 138°
2026-05-09 08:43 41.96038 21.62455 791 ft 4 kts 166°
2026-05-09 08:43 41.96062 21.62448 791 ft 2 kts 166°
2026-05-09 08:43 41.96064 21.62447 791 ft 0 kts 166°
2026-05-09 08:45 41.96057 21.62449 791 ft 4 kts 166°
2026-05-09 08:45 41.95995 21.62471 791 ft 14 kts 164°
2026-05-09 08:46 41.95915 21.62500 791 ft 9 kts 165°
2026-05-09 08:46 41.95856 21.62521 790 ft 10 kts 165°
2026-05-09 08:46 41.95779 21.62547 788 ft 14 kts 166°
2026-05-09 08:46 41.95664 21.62586 786 ft 19 kts 165°
2026-05-09 08:47 41.95543 21.62631 785 ft 17 kts 165°
2026-05-09 08:47 41.95433 21.62671 783 ft 16 kts 165°
2026-05-09 08:47 41.95334 21.62704 782 ft 14 kts 166°
2026-05-09 08:47 41.95255 21.62731 780 ft 10 kts 166°
2026-05-09 08:48 41.95191 21.62753 779 ft 9 kts 168°
2026-05-09 08:48 41.95151 21.62739 778 ft 5 kts 219°
2026-05-09 08:48 41.95138 21.62688 778 ft 9 kts 259°
2026-05-09 08:48 41.95119 21.62586 779 ft 10 kts 254°
2026-05-09 08:49 41.95113 21.62529 781 ft 1 kts 281°
2026-05-09 08:49 41.95113 21.62526 781 ft 2 kts 285°
2026-05-09 08:49 41.95163 21.62494 781 ft 13 kts 345°
2026-05-09 08:49 41.95424 21.62402 782 ft 74 kts 345°
2026-05-09 08:50 41.96125 21.62157 788 ft 133 kts 345°
2026-05-09 08:50 41.97151 21.61804 1040 ft 159 kts 346°
2026-05-09 08:50 41.98231 21.61442 1746 ft 161 kts 346°
2026-05-09 08:50 41.99325 21.61075 2487 ft 163 kts 346°
2026-05-09 08:51 42.00435 21.60742 3181 ft 165 kts 358°
2026-05-09 08:51 42.01525 21.61167 3848 ft 166 kts 35°
2026-05-09 08:51 42.02281 21.62392 4349 ft 184 kts 69°
2026-05-09 08:51 42.02320 21.64185 4735 ft 207 kts 109°
2026-05-09 08:52 42.01356 21.65745 5032 ft 237 kts 152°
2026-05-09 08:52 41.99682 21.66191 5489 ft 260 kts 186°
2026-05-09 08:52 41.97897 21.65652 6393 ft 266 kts 199°
2026-05-09 08:52 41.96158 21.64762 7353 ft 269 kts 204°
2026-05-09 08:53 41.94455 21.63704 8329 ft 270 kts 217°
2026-05-09 08:53 41.93249 21.61796 9235 ft 273 kts 244°
2026-05-09 08:53 41.92632 21.59359 10040 ft 279 kts 254°
2026-05-09 08:53 41.92056 21.56794 10479 ft 298 kts 253°
2026-05-09 08:54 41.91424 21.54078 10785 ft 318 kts 252°
2026-05-09 08:54 41.90747 21.51211 11406 ft 326 kts 252°
2026-05-09 08:54 41.90055 21.48292 12119 ft 331 kts 252°
2026-05-09 08:54 41.89349 21.45328 12849 ft 336 kts 252°
2026-05-09 08:55 41.88636 21.42321 13560 ft 341 kts 252°
2026-05-09 08:55 41.87915 21.39272 14248 ft 345 kts 252°
2026-05-09 08:55 41.87188 21.36188 14917 ft 348 kts 252°
2026-05-09 08:55 41.86454 21.33076 15576 ft 352 kts 252°
2026-05-09 08:56 41.85711 21.29935 16223 ft 355 kts 252°
2026-05-09 08:56 41.84958 21.26762 16787 ft 362 kts 252°
2026-05-09 08:56 41.84174 21.23461 16923 ft 380 kts 252°
2026-05-09 08:56 41.83362 21.20035 17333 ft 389 kts 252°
2026-05-09 08:57 41.82537 21.16561 17957 ft 392 kts 253°
2026-05-09 08:57 41.81705 21.13072 18586 ft 395 kts 253°
2026-05-09 08:57 41.80863 21.09544 19078 ft 399 kts 253°
2026-05-09 08:57 41.80007 21.05992 19614 ft 402 kts 253°
2026-05-09 08:58 41.79138 21.02416 20152 ft 405 kts 253°
2026-05-09 08:58 41.78308 20.98800 20694 ft 407 kts 258°
2026-05-09 08:58 41.78081 20.95025 21238 ft 408 kts 275°
2026-05-09 08:58 41.78690 20.91318 21771 ft 410 kts 291°
2026-05-09 08:59 41.79780 20.87776 22260 ft 412 kts 292°
2026-05-09 08:59 41.80897 20.84227 22735 ft 414 kts 293°
2026-05-09 08:59 41.82024 20.80665 23175 ft 416 kts 293°
2026-05-09 08:59 41.83154 20.77082 23640 ft 418 kts 293°
2026-05-09 09:00 41.84283 20.73485 24028 ft 420 kts 292°
2026-05-09 09:00 41.85413 20.69864 24410 ft 422 kts 292°
2026-05-09 09:00 41.86543 20.66226 24774 ft 424 kts 292°
2026-05-09 09:00 41.87678 20.62570 25125 ft 425 kts 292°
2026-05-09 09:01 41.88774 20.58873 25465 ft 428 kts 291°
2026-05-09 09:01 41.89815 20.55180 25789 ft 430 kts 290°
2026-05-09 09:01 41.90847 20.51411 26108 ft 432 kts 290°
2026-05-09 09:01 41.91876 20.47609 26427 ft 434 kts 290°
2026-05-09 09:02 41.92906 20.43804 26751 ft 435 kts 290°
2026-05-09 09:02 41.93948 20.39978 27056 ft 437 kts 290°
2026-05-09 09:02 41.95002 20.36145 27345 ft 439 kts 290°
2026-05-09 09:02 41.96067 20.32292 27614 ft 440 kts 290°
2026-05-09 09:03 41.97138 20.28431 27884 ft 442 kts 290°
2026-05-09 09:03 41.98213 20.24547 28151 ft 444 kts 290°
2026-05-09 09:03 41.99289 20.20651 28428 ft 446 kts 290°
2026-05-09 09:03 42.00365 20.16743 28688 ft 447 kts 290°
2026-05-09 09:04 42.01442 20.12822 29035 ft 446 kts 290°
2026-05-09 09:04 42.02514 20.08907 29399 ft 446 kts 290°
2026-05-09 09:04 42.03583 20.05001 29737 ft 445 kts 290°
2026-05-09 09:04 42.04652 20.01092 30062 ft 445 kts 290°
2026-05-09 09:05 42.05718 19.97190 30343 ft 444 kts 290°
2026-05-09 09:05 42.06780 19.93292 30674 ft 443 kts 289°
2026-05-09 09:05 42.07835 19.89404 31000 ft 442 kts 289°
2026-05-09 09:05 42.08887 19.85519 31362 ft 441 kts 289°
2026-05-09 09:06 42.09932 19.81648 31682 ft 440 kts 289°
2026-05-09 09:06 42.10976 19.77779 31959 ft 439 kts 289°
2026-05-09 09:06 42.12016 19.73926 32268 ft 438 kts 289°
2026-05-09 09:06 42.13055 19.70075 32574 ft 437 kts 289°
2026-05-09 09:07 42.14088 19.66229 32880 ft 436 kts 289°
2026-05-09 09:07 42.15119 19.62388 33190 ft 435 kts 289°
2026-05-09 09:07 42.16148 19.58558 33495 ft 435 kts 289°
2026-05-09 09:07 42.17174 19.54729 33800 ft 434 kts 289°
2026-05-09 09:08 42.18197 19.50904 34089 ft 433 kts 289°
2026-05-09 09:08 42.19218 19.47085 34341 ft 432 kts 289°
2026-05-09 09:08 42.20238 19.43277 34600 ft 431 kts 289°
2026-05-09 09:08 42.21252 19.39476 34871 ft 430 kts 289°
2026-05-09 09:09 42.22421 19.35770 35127 ft 430 kts 297°
2026-05-09 09:09 42.24019 19.32364 35374 ft 430 kts 306°
2026-05-09 09:09 42.26021 19.29357 35652 ft 432 kts 314°
2026-05-09 09:09 42.28190 19.26571 35973 ft 430 kts 314°
2026-05-09 09:10 42.30352 19.23780 36278 ft 428 kts 314°
2026-05-09 09:10 42.32498 19.20998 36501 ft 427 kts 314°
2026-05-09 09:10 42.34638 19.18215 36716 ft 426 kts 314°
2026-05-09 09:10 42.36768 19.15436 36935 ft 425 kts 314°
2026-05-09 09:11 42.38897 19.12659 37151 ft 425 kts 314°
2026-05-09 09:11 42.41018 19.09893 37358 ft 423 kts 313°
2026-05-09 09:11 42.43139 19.07128 37557 ft 423 kts 313°
2026-05-09 09:11 42.45256 19.04363 37718 ft 423 kts 313°
2026-05-09 09:12 42.47368 19.01600 37905 ft 422 kts 313°
2026-05-09 09:12 42.49475 18.98842 38053 ft 422 kts 313°
2026-05-09 09:12 42.51558 18.96112 38074 ft 422 kts 313°
2026-05-09 09:13 42.55775 18.90571 38066 ft 422 kts 313°
2026-05-09 09:13 42.59994 18.85020 38067 ft 422 kts 313°
2026-05-09 09:14 42.64211 18.79471 38058 ft 422 kts 313°
2026-05-09 09:14 42.68420 18.73917 38076 ft 422 kts 313°
2026-05-09 09:15 42.72622 18.68354 38068 ft 422 kts 313°
2026-05-09 09:15 42.76143 18.63689 38065 ft 422 kts 313°
2026-05-09 09:16 42.80342 18.58116 38063 ft 422 kts 313°
2026-05-09 09:16 42.86611 18.49767 38070 ft 422 kts 313°
2026-05-09 09:17 42.90809 18.44169 38073 ft 422 kts 313°
2026-05-09 09:17 42.95002 18.38567 38085 ft 422 kts 313°
2026-05-09 09:18 42.99195 18.32953 38086 ft 422 kts 313°
2026-05-09 09:18 43.03385 18.27333 38088 ft 423 kts 313°
2026-05-09 09:19 43.07578 18.21695 38093 ft 423 kts 313°
2026-05-09 09:19 43.11761 18.16047 38089 ft 423 kts 312°
2026-05-09 09:20 43.15941 18.10399 38086 ft 422 kts 312°
2026-05-09 09:20 43.20125 18.04739 38096 ft 423 kts 312°
2026-05-09 09:21 43.24307 17.99070 38081 ft 422 kts 312°
2026-05-09 09:21 43.28477 17.93396 38073 ft 423 kts 312°
2026-05-09 09:22 43.32650 17.87712 38067 ft 422 kts 312°
2026-05-09 09:22 43.36821 17.82018 38070 ft 423 kts 312°
2026-05-09 09:23 43.40992 17.76314 38108 ft 423 kts 312°
2026-05-09 09:23 43.45160 17.70610 38113 ft 422 kts 312°
2026-05-09 09:24 43.49319 17.64907 38124 ft 421 kts 312°
2026-05-09 09:24 43.53435 17.59244 38117 ft 421 kts 312°
2026-05-09 09:25 43.57579 17.53534 38118 ft 421 kts 312°
2026-05-09 09:25 43.61721 17.47826 38119 ft 421 kts 312°
2026-05-09 09:26 43.65857 17.42098 38134 ft 421 kts 311°
2026-05-09 09:26 43.70013 17.36312 38131 ft 421 kts 311°
2026-05-09 09:27 43.74149 17.30570 38123 ft 421 kts 311°
2026-05-09 09:27 43.78278 17.24827 38131 ft 421 kts 311°
2026-05-09 09:28 43.82398 17.19069 38120 ft 421 kts 311°